{"data":{"norad_id":59213,"intl_designator":"2024-046N","name":"STARLINK-31517","alt_names":[],"object_type":"PAYLOAD","status":"ACTIVE","operator":null,"country":"US","launch_date":"2024-03-11","launch_site_code":"AFWTR","launch_vehicle":null,"mission":null,"orbit_class":"UNKNOWN","rcs_meters":null,"size_class":null,"mass_kg":null,"dimensions":null,"purposes":["comms"],"wikipedia_slug":null,"has_3d_model":false,"image_url":null,"decayed_at":null,"tle_current":{"epoch":"2026-09-20T11:16:23.121984Z","epoch_age_seconds":161499,"freshness":"FRESH","line1":"1 59213U 24046N   26263.46971206 -.00000958  00000+0 -17228-4 0  9997","line2":"2 59213  53.1605 326.2088 0001154  67.0660 293.0465 15.34394721142923","mean_motion":15.34394721,"eccentricity":0.0001154,"inclination_deg":53.1605,"raan_deg":326.2088,"arg_perigee_deg":67.066,"mean_anomaly_deg":293.0465,"bstar":-1.7228e-5,"rev_number":14292,"period_min":93.848080959345,"perigee_km":461.9294957782,"apogee_km":463.50836532698,"semimajor_km":6840.8559305526,"source":"CELESTRAK","updated_at":"2026-09-21T09:00:34.070808Z"}}}